{"data":{"norad_id":65352,"intl_designator":"2025-190B","name":"STARLINK-34716","alt_names":[],"object_type":"PAYLOAD","status":"ACTIVE","operator":null,"country":"US","launch_date":"2025-08-28","launch_site_code":"AFETR","launch_vehicle":null,"mission":null,"orbit_class":"UNKNOWN","rcs_meters":null,"size_class":null,"mass_kg":null,"dimensions":null,"purposes":["comms"],"wikipedia_slug":null,"has_3d_model":false,"image_url":null,"decayed_at":null,"tle_current":{"epoch":"2026-09-20T12:48:42.355584Z","epoch_age_seconds":114547,"freshness":"FRESH","line1":"1 65352U 25190B   26263.53382356  .00014356  00000+0  43513-3 0  9999","line2":"2 65352  53.1576 341.2481 0001027  85.7615 274.3505 15.34404565 59619","mean_motion":15.34404565,"eccentricity":0.0001027,"inclination_deg":53.1576,"raan_deg":341.2481,"arg_perigee_deg":85.7615,"mean_anomaly_deg":274.3505,"bstar":0.00043513,"rev_number":5961,"period_min":93.847478875299,"perigee_km":461.98711919949,"apogee_km":463.39222499794,"semimajor_km":6840.8266720987,"source":"CELESTRAK","updated_at":"2026-09-21T09:00:35.575137Z"}}}